EA5AER-5 Weather Reports


Display with metric or nautical units.
time (UTC)temp
F
wind
direction
speed
MPH
gust
MPH
rain 1hr
in
rain 24hr
in
rain mn
in
humidity
%
barometer
mb
20260504050648 64 300 1.0 3.0 0.00 0.00 0.00 84 1010.2
20260504044644 64 300 1.0 3.0 0.00 0.00 0.00 84 1010.2
20260504042539 64 300 1.0 3.0 0.00 0.00 0.00 84 1010.2
20260504040659 64 279 2.0 3.0 0.00 0.00 0.00 83 1011.0
20260504034633 64 279 2.0 3.0 0.00 0.00 0.00 83 1011.0
20260504032631 64 279 2.0 3.0 0.00 0.00 0.00 83 1011.0
20260504030449 64 279 2.0 3.0 0.00 0.00 0.00 83 1011.0
20260504024504 65 331 1.0 3.0 0.00 0.00 0.00 81 1011.0
20260504022513 65 331 1.0 3.0 0.00 0.00 0.00 81 1011.0
20260504020502 65 192 0.0 2.0 0.00 0.00 0.00 81 1011.1
20260504014609 65 192 0.0 2.0 0.00 0.00 0.00 81 1011.1
20260504012753 65 192 0.0 2.0 0.00 0.00 0.00 81 1011.1
20260504010548 65 192 1.0 2.0 0.00 0.00 0.00 81 1011.0
20260504004610 65 227 0.0 1.0 0.00 0.00 0.00 80 1011.2
20260504002726 65 227 0.0 1.0 0.00 0.00 0.00 80 1011.2
20260504000701 65 256 1.0 2.0 0.00 0.00 0.00 80 1011.4
20260503234854 65 160 1.0 2.0 0.00 0.00 0.00 80 1011.5
20260503232813 65 219 1.0 2.0 0.00 0.00 0.00 80 1011.9
20260503230744 65 219 1.0 2.0 0.00 0.00 0.00 80 1011.9
20260503224754 65 219 0.0 2.0 0.00 0.00 0.00 81 1012.0
20260503222813 65 219 0.0 2.0 0.00 0.00 0.00 81 1012.0
20260503220821 64 234 1.0 3.0 0.00 0.00 0.00 81 1012.2
20260503214834 64 234 1.0 3.0 0.00 0.00 0.00 81 1012.2
20260503212816 64 234 1.0 3.0 0.00 0.00 0.00 81 1012.2
20260503210924 64 244 4.0 5.0 0.00 0.00 0.00 81 1012.0
20260503204954 64 257 2.0 3.0 0.00 0.00 0.00 81 1011.7
20260503203046 64 257 2.0 3.0 0.00 0.00 0.00 81 1011.7
20260503201045 65 328 0.0 2.0 0.00 0.00 0.00 80 1011.2
20260503195053 65 328 0.0 2.0 0.00 0.00 0.00 80 1011.2
20260503193149 65 73 1.0 3.0 0.00 0.00 0.00 80 1010.8
20260503191139 65 73 1.0 3.0 0.00 0.00 0.00 80 1010.8
20260503185144 65 73 1.0 3.0 0.00 0.00 0.00 80 1010.8
20260503182959 65 58 2.0 6.0 0.00 0.00 0.00 78 1010.4
20260503181124 65 58 2.0 6.0 0.00 0.00 0.00 78 1010.4
20260503175127 65 73 3.0 5.0 0.00 0.00 0.00 79 1010.6
20260503173137 66 73 5.0 8.0 0.00 0.00 0.00 78 1010.8
20260503171146 66 73 5.0 8.0 0.00 0.00 0.00 78 1010.8
20260503081459 65 189 4.0 7.0 0.00 0.00 0.00 78 1013.8
20260503071329 65 93 4.0 6.0 0.00 0.00 0.00 81 1013.0